TimeCST,TemperatureF,Dew PointF,Humidity,Sea Level PressureIn,VisibilityMPH,Wind Direction,Wind SpeedMPH,Gust SpeedMPH,PrecipitationIn,Events,Conditions,WindDirDegrees,DateUTC
12:15 AM,45.5,44.6,97,29.88,1.8,NW,4.6,-,0.01,Rain,Light Rain,310,2012-12-08 06:15:00
12:35 AM,45.1,44.1,96,29.87,1.8,North,3.5,-,0.01,,Overcast,360,2012-12-08 06:35:00
12:55 AM,44.6,43.7,97,29.87,2.0,Calm,Calm,-,0.01,,Overcast,0,2012-12-08 06:55:00
1:15 AM,44.6,43.3,95,29.87,1.5,Calm,Calm,-,N/A,,Overcast,0,2012-12-08 07:15:00
1:35 AM,44.6,43.7,97,29.88,1.5,Calm,Calm,-,N/A,,Overcast,0,2012-12-08 07:35:00
1:55 AM,44.8,43.7,96,29.88,1.0,West,3.5,-,N/A,,Overcast,260,2012-12-08 07:55:00
2:15 AM,44.6,43.7,97,29.91,1.2,WNW,8.1,-,N/A,,Overcast,290,2012-12-08 08:15:00
2:35 AM,43.9,42.8,96,29.91,0.5,WNW,9.2,-,N/A,Fog,Fog,290,2012-12-08 08:35:00
2:55 AM,43.2,42.3,97,29.90,0.5,NW,9.2,-,N/A,Fog,Fog,310,2012-12-08 08:55:00
3:15 AM,42.8,41.9,97,29.91,0.5,NW,9.2,-,N/A,Fog,Fog,310,2012-12-08 09:15:00
3:35 AM,42.8,41.7,96,29.91,1.2,NW,9.2,-,N/A,,Overcast,310,2012-12-08 09:35:00
3:55 AM,42.4,41.5,97,29.90,1.2,NW,6.9,-,N/A,,Overcast,310,2012-12-08 09:55:00
4:15 AM,41.9,41.0,97,29.91,1.2,NW,12.7,-,N/A,,Overcast,320,2012-12-08 10:15:00
4:35 AM,41.9,41.0,97,29.92,1.2,NW,11.5,-,N/A,,Overcast,310,2012-12-08 10:35:00
4:55 AM,41.2,40.3,97,29.93,1.8,NW,10.4,-,N/A,,Overcast,320,2012-12-08 10:55:00
5:15 AM,41.0,40.1,97,29.93,2.5,NW,9.2,-,N/A,,Overcast,310,2012-12-08 11:15:00
5:35 AM,41.0,40.1,97,29.94,2.5,NNW,6.9,-,N/A,,Overcast,330,2012-12-08 11:35:00
5:55 AM,41.0,39.7,95,29.94,3.0,NW,8.1,-,N/A,,Overcast,320,2012-12-08 11:55:00
6:15 AM,40.6,39.6,96,29.95,2.5,NW,6.9,-,N/A,,Overcast,320,2012-12-08 12:15:00
6:35 AM,40.5,39.4,96,29.96,2.5,NW,6.9,-,N/A,,Overcast,320,2012-12-08 12:35:00
6:55 AM,40.1,38.7,95,29.97,2.5,NW,10.4,-,N/A,,Overcast,310,2012-12-08 12:55:00
7:15 AM,39.4,38.3,96,29.97,4.0,NW,11.5,17.3,N/A,,Overcast,320,2012-12-08 13:15:00
7:35 AM,39.2,37.8,95,29.97,2.5,NNW,5.8,-,N/A,,Overcast,330,2012-12-08 13:35:00
7:55 AM,39.2,37.8,95,29.99,2.5,NNW,6.9,-,N/A,,Overcast,340,2012-12-08 13:55:00
8:15 AM,39.2,37.8,95,29.99,2.0,NW,4.6,-,N/A,,Overcast,320,2012-12-08 14:15:00
8:35 AM,39.6,38.1,95,30.00,2.0,NNW,4.6,-,N/A,,Overcast,330,2012-12-08 14:35:00
8:55 AM,40.1,38.3,93,30.00,2.5,NNW,8.1,-,N/A,,Overcast,330,2012-12-08 14:55:00
9:15 AM,40.1,38.3,93,30.01,2.5,NW,8.1,-,N/A,,Overcast,310,2012-12-08 15:15:00
9:35 AM,40.1,38.3,93,30.01,2.0,NNW,8.1,-,N/A,,Overcast,330,2012-12-08 15:35:00
9:55 AM,39.9,38.1,93,30.01,2.5,NNW,9.2,-,N/A,,Overcast,330,2012-12-08 15:55:00
10:15 AM,40.1,38.3,93,30.02,2.5,NNW,6.9,-,N/A,,Overcast,330,2012-12-08 16:15:00
10:35 AM,40.1,38.1,93,30.02,3.0,NNW,5.8,-,N/A,,Overcast,340,2012-12-08 16:35:00
10:55 AM,40.1,37.8,91,30.02,4.0,North,4.6,-,N/A,,Overcast,10,2012-12-08 16:55:00
11:15 AM,40.1,37.2,89,30.01,5.0,NNE,6.9,-,N/A,,Overcast,20,2012-12-08 17:15:00
11:35 AM,40.1,37.0,89,30.01,5.0,NNE,5.8,-,N/A,,Overcast,30,2012-12-08 17:35:00
11:55 AM,40.1,36.9,88,30.00,5.0,NNE,4.6,-,N/A,,Overcast,20,2012-12-08 17:55:00
12:15 PM,40.5,36.5,86,30.00,7.0,NNE,4.6,-,N/A,,Overcast,20,2012-12-08 18:15:00
12:35 PM,40.6,36.7,86,29.99,7.0,NE,4.6,-,N/A,,Overcast,40,2012-12-08 18:35:00
12:55 PM,41.0,37.0,86,29.99,7.0,NE,4.6,-,N/A,,Overcast,40,2012-12-08 18:55:00
1:15 PM,41.0,36.9,85,29.99,10.0,NE,9.2,-,N/A,,Overcast,40,2012-12-08 19:15:00
1:35 PM,40.6,36.5,85,30.00,10.0,NE,6.9,-,N/A,,Overcast,50,2012-12-08 19:35:00
1:55 PM,40.6,36.1,84,30.01,10.0,ENE,8.1,-,N/A,,Overcast,60,2012-12-08 19:55:00
2:15 PM,40.1,36.3,86,30.01,7.0,ENE,5.8,-,N/A,,Overcast,60,2012-12-08 20:15:00
2:35 PM,40.1,36.3,86,30.00,7.0,ENE,4.6,-,N/A,,Overcast,70,2012-12-08 20:35:00
2:55 PM,39.7,36.5,88,30.01,7.0,NE,5.8,-,N/A,,Overcast,40,2012-12-08 20:55:00
3:15 PM,40.1,36.7,88,30.00,7.0,ENE,5.8,-,N/A,,Overcast,60,2012-12-08 21:15:00
3:35 PM,40.1,36.5,87,30.00,7.0,NE,6.9,-,N/A,,Overcast,50,2012-12-08 21:35:00
3:55 PM,40.1,36.7,88,30.00,7.0,NE,8.1,-,N/A,,Overcast,50,2012-12-08 21:55:00
4:15 PM,40.1,36.5,87,30.00,7.0,ENE,5.8,-,N/A,,Overcast,60,2012-12-08 22:15:00
4:35 PM,40.1,36.5,87,30.01,10.0,East,4.6,-,N/A,,Overcast,100,2012-12-08 22:35:00
4:55 PM,40.3,36.5,86,30.02,10.0,East,4.6,-,N/A,,Overcast,80,2012-12-08 22:55:00
5:15 PM,40.3,36.7,87,30.03,10.0,ESE,4.6,-,N/A,,Overcast,120,2012-12-08 23:15:00
5:35 PM,40.3,36.7,87,30.02,10.0,East,5.8,-,N/A,,Overcast,80,2012-12-08 23:35:00
5:55 PM,40.3,36.7,87,30.01,10.0,East,9.2,-,N/A,,Overcast,90,2012-12-08 23:55:00
6:15 PM,40.5,36.7,86,30.02,10.0,East,5.8,-,N/A,,Overcast,100,2012-12-09 00:15:00
6:35 PM,40.5,37.0,88,30.02,10.0,East,6.9,-,N/A,,Overcast,100,2012-12-09 00:35:00
6:55 PM,40.6,37.0,87,30.02,10.0,East,4.6,-,N/A,,Overcast,80,2012-12-09 00:55:00
7:15 PM,40.5,37.0,88,30.01,10.0,East,5.8,-,N/A,,Overcast,80,2012-12-09 01:15:00
7:35 PM,41.0,37.4,87,30.01,10.0,East,5.8,-,N/A,,Overcast,80,2012-12-09 01:35:00
7:55 PM,41.0,37.4,87,30.00,7.0,ENE,5.8,-,N/A,,Overcast,60,2012-12-09 01:55:00
8:15 PM,40.3,37.4,89,29.97,7.0,ENE,8.1,-,N/A,,Overcast,70,2012-12-09 02:15:00
8:35 PM,40.5,37.4,89,29.98,7.0,East,8.1,-,N/A,,Overcast,90,2012-12-09 02:35:00
8:55 PM,40.8,37.6,88,29.98,10.0,East,9.2,-,N/A,,Overcast,80,2012-12-09 02:55:00
9:15 PM,41.0,37.8,88,29.98,10.0,ENE,6.9,-,N/A,,Overcast,70,2012-12-09 03:15:00
9:35 PM,41.0,39.2,93,29.99,7.0,ENE,8.1,-,N/A,,Overcast,70,2012-12-09 03:35:00
9:55 PM,41.0,38.3,90,29.99,7.0,ENE,6.9,-,N/A,Rain,Light Rain,60,2012-12-09 03:55:00
10:15 PM,41.0,39.2,93,29.99,7.0,ENE,6.9,-,N/A,Rain,Light Rain,60,2012-12-09 04:15:00
10:35 PM,41.0,38.8,92,29.99,5.0,ENE,6.9,-,0.01,Rain,Light Rain,60,2012-12-09 04:35:00
10:55 PM,41.0,39.2,93,29.99,5.0,ENE,6.9,-,0.01,Rain,Light Rain,70,2012-12-09 04:55:00
11:15 PM,41.0,39.2,93,29.98,3.0,ENE,8.1,-,N/A,,Light Drizzle,60,2012-12-09 05:15:00
11:35 PM,41.0,39.2,93,29.98,3.0,ENE,6.9,-,N/A,,Light Drizzle,60,2012-12-09 05:35:00
11:55 PM,40.6,39.2,95,29.97,2.5,East,8.1,-,0.01,Rain,Light Rain,80,2012-12-09 05:55:00